Stillwater, OK

7:39 PM CDT on September 30, 2016 (GMT -0500)
Stillwater Municipal

Weather History for KSWO - January, 2014

Change the Weather History Date:

Sunday, January 19, 2014

  Actual Average Record
Temperature  
Mean Temperature 44 °F -  
Max Temperature 66 °F 46 °F 72 °F (2015)
Min Temperature 21 °F 24 °F 12 °F (2001)
Degree Days  
Heating Degree Days 22    
Moisture  
Dew Point 22 °F    
Average Humidity 48    
Maximum Humidity 88    
Minimum Humidity 17    
Precipitation  
Precipitation 0.00 in - - ()
Sea Level Pressure  
Sea Level Pressure 30.07 in    
Wind  
Wind Speed 8 mph (SW)    
Max Wind Speed 22 mph    
Max Gust Speed 29 mph    
Visibility 10 miles    
Events      
Averages and records for this station are not official NWS values.
T = Trace of Precipitation, MM = Missing Value Source: NWS Daily Summary

Daily Weather History Graph

Daily Weather History Graph

Search for Another Location

Airport or City:

Trip Planner

Search our weather history database for the weather conditions in past years. The results will help you decide how hot, cold, wet, or windy it might be!

Date:

Astronomy

Jan. 19, 2014 Rise Set
Actual Time 7:37 AM CST 5:41 PM CST
Civil Twilight 7:09 AM CST 6:09 PM CST
Nautical Twilight 6:38 AM CST 6:40 PM CST
Astronomical Twilight 6:07 AM CST 7:11 PM CST
Moon 9:12 PM CST (1/19) 9:14 AM CST (1/19)
Length of Visible Light 10h 59m
Length of Day
10h 04m
Waning Gibbous, 89% of the Moon is Illuminated
Jan 19
Waning Gibbous
Jan 23
Last Quarter
Jan 30
New
Feb 6
First Quarter
Feb 14
Full

Hourly Weather History & Observations

Time (CST) Temp. Windchill Dew Point Humidity Pressure Visibility Wind Dir Wind Speed Gust Speed Precip Events Conditions
12:53 AM 28.9 °F 21.9 °F 21.0 °F 72% 30.19 in 10.0 mi WNW 6.9 mph - N/A   Clear
1:53 AM 26.1 °F 21.9 °F 19.9 °F 78% 30.20 in 10.0 mi West 3.5 mph - N/A   Clear
2:53 AM 24.1 °F 18.2 °F 19.0 °F 81% 30.19 in 10.0 mi NW 4.6 mph - N/A   Clear
3:53 AM 25.0 °F 19.3 °F 19.9 °F 81% 30.22 in 10.0 mi West 4.6 mph - N/A   Clear
4:53 AM 23.0 °F - 19.9 °F 88% 30.20 in 10.0 mi Calm Calm - N/A   Clear
5:53 AM 23.0 °F 18.4 °F 19.9 °F 88% 30.21 in 10.0 mi WSW 3.5 mph - N/A   Clear
6:53 AM 21.9 °F 15.7 °F 18.0 °F 85% 30.22 in 10.0 mi WSW 4.6 mph - N/A   Clear
7:53 AM 23.0 °F 18.4 °F 19.0 °F 85% 30.20 in 10.0 mi SW 3.5 mph - N/A   Clear
8:53 AM 32.0 °F 27.5 °F 25.0 °F 75% 30.19 in 10.0 mi SW 4.6 mph - N/A   Clear
9:53 AM 45.0 °F 40.6 °F 26.1 °F 48% 30.18 in 10.0 mi SW 8.1 mph - N/A   Clear
10:53 AM 54.0 °F - 23.0 °F 30% 30.16 in 10.0 mi SW 16.1 mph - N/A   Clear
11:53 AM 57.9 °F - 21.9 °F 25% 30.12 in 10.0 mi SW 19.6 mph 27.6 mph N/A   Clear
12:53 PM 62.1 °F - 21.9 °F 21% 30.05 in 10.0 mi SW 21.9 mph 28.8 mph N/A   Clear
1:53 PM 66.0 °F - 21.0 °F 18% 29.99 in 10.0 mi SW 16.1 mph 25.3 mph N/A   Clear
2:53 PM 66.9 °F - 21.9 °F 18% 29.96 in 10.0 mi SW 17.3 mph 26.5 mph N/A   Clear
3:53 PM 66.9 °F - 21.0 °F 17% 29.96 in 10.0 mi SW 16.1 mph - N/A   Clear
4:53 PM 64.0 °F - 21.0 °F 19% 29.95 in 10.0 mi SSW 12.7 mph 21.9 mph N/A   Clear
5:53 PM 59.0 °F - 21.9 °F 24% 29.95 in 10.0 mi SSW 12.7 mph - N/A   Clear
6:53 PM 53.1 °F - 21.9 °F 30% 29.95 in 10.0 mi South 9.2 mph - N/A   Clear
7:53 PM 52.0 °F - 23.0 °F 32% 29.95 in 10.0 mi SSW 10.4 mph - N/A   Clear
8:53 PM 53.1 °F - 23.0 °F 31% 29.93 in 10.0 mi SSW 10.4 mph - N/A   Clear
9:53 PM 53.1 °F - 23.0 °F 31% 29.91 in 10.0 mi SSW 8.1 mph - N/A   Clear
10:53 PM 53.1 °F - 23.0 °F 31% 29.89 in 10.0 mi South 11.5 mph - N/A   Clear
11:53 PM 48.9 °F - 21.9 °F 35% 29.88 in 10.0 mi South 9.2 mph - N/A   Clear